Location: Heiligenberg
(48.5381°N, 7.3897°E)
Time: 20:23:04
(UTC+00:00)

Cosmos 1025 Rocket - Pass Details

Date: 26 May 2022
Orbit: 593 x 617 km, 82.5° (Epoch: 02 July)

Event Time Altitude Azimuth Distance (km) Brightness Sun altitude
Exits shadow 00:47:11 29° 156° (SSE) 1,115 4.0 -18.1°
Maximum altitude 00:49:05 52° 95° (E) 756 3.5 -18.0°
Drops below altitude 10° 00:53:17 10° 19° (NNE) 1,955 6.9 -17.8°
Sets 00:55:32 0° 14° (NNE) 2,859 8.2 -17.6°
